TimeCST,TemperatureF,Dew PointF,Humidity,Sea Level PressureIn,VisibilityMPH,Wind Direction,Wind SpeedMPH,Gust SpeedMPH,PrecipitationIn,Events,Conditions,WindDirDegrees,DateUTC
12:15 AM,23.5,7.7,51,30.21,10.0,East,10.4,-,N/A,,Overcast,80,2013-02-21 06:15:00
12:35 AM,23.7,7.9,51,30.22,10.0,East,11.5,-,N/A,,Overcast,100,2013-02-21 06:35:00
12:55 AM,23.7,7.5,50,30.22,10.0,East,12.7,-,N/A,,Overcast,100,2013-02-21 06:55:00
1:15 AM,23.5,7.5,50,30.22,10.0,East,9.2,-,N/A,,Overcast,100,2013-02-21 07:15:00
1:35 AM,23.5,7.7,51,30.21,10.0,East,9.2,-,N/A,,Overcast,90,2013-02-21 07:35:00
1:55 AM,23.4,7.7,51,30.19,10.0,ENE,9.2,-,N/A,,Overcast,70,2013-02-21 07:55:00
2:15 AM,22.3,7.7,54,30.19,10.0,East,9.2,-,N/A,,Mostly Cloudy,80,2013-02-21 08:15:00
2:35 AM,22.1,8.1,55,30.17,10.0,East,8.1,-,N/A,,Mostly Cloudy,80,2013-02-21 08:35:00
2:55 AM,22.1,8.4,56,30.14,10.0,ENE,6.9,-,N/A,,Mostly Cloudy,70,2013-02-21 08:55:00
3:15 AM,22.1,8.6,56,30.12,10.0,ENE,11.5,16.1,N/A,,Mostly Cloudy,60,2013-02-21 09:15:00
3:35 AM,22.1,9.0,57,30.12,10.0,ENE,13.8,18.4,N/A,,Mostly Cloudy,70,2013-02-21 09:35:00
3:55 AM,22.5,9.1,57,30.13,10.0,East,16.1,-,N/A,,Overcast,80,2013-02-21 09:55:00
4:15 AM,22.1,9.3,58,30.12,10.0,East,12.7,17.3,N/A,,Overcast,80,2013-02-21 10:15:00
4:35 AM,22.1,9.5,58,30.10,10.0,East,16.1,20.7,N/A,,Overcast,80,2013-02-21 10:35:00
4:55 AM,22.1,9.5,58,30.08,10.0,ENE,15.0,-,N/A,,Overcast,70,2013-02-21 10:55:00
5:15 AM,22.1,9.1,58,30.09,10.0,East,16.1,-,N/A,,Overcast,80,2013-02-21 11:15:00
5:55 AM,22.5,9.3,57,30.11,10.0,East,13.8,17.3,N/A,,Overcast,80,2013-02-21 11:55:00
6:15 AM,22.5,9.5,58,30.08,10.0,ENE,15.0,20.7,N/A,,Overcast,70,2013-02-21 12:15:00
6:35 AM,22.1,9.7,59,30.07,10.0,ENE,15.0,21.9,N/A,,Overcast,70,2013-02-21 12:35:00
6:55 AM,22.5,10.0,59,30.10,10.0,East,13.8,20.7,N/A,,Overcast,80,2013-02-21 12:55:00
7:15 AM,22.5,10.4,60,30.08,10.0,East,17.3,-,N/A,,Overcast,80,2013-02-21 13:15:00
7:35 AM,22.1,10.8,62,30.07,10.0,ENE,15.0,23.0,N/A,,Overcast,70,2013-02-21 13:35:00
7:55 AM,22.5,10.8,61,30.06,10.0,ENE,15.0,20.7,N/A,,Overcast,70,2013-02-21 13:55:00
8:15 AM,22.8,10.9,60,30.09,10.0,East,13.8,21.9,N/A,,Overcast,80,2013-02-21 14:15:00
8:35 AM,23.0,10.9,60,30.11,10.0,East,12.7,-,N/A,,Overcast,80,2013-02-21 14:35:00
8:55 AM,23.0,11.1,60,30.10,10.0,ENE,12.7,17.3,N/A,,Overcast,70,2013-02-21 14:55:00
9:15 AM,23.4,11.3,60,30.08,10.0,East,13.8,-,N/A,,Overcast,80,2013-02-21 15:15:00
9:35 AM,23.9,11.3,59,30.07,10.0,East,15.0,21.9,N/A,,Overcast,80,2013-02-21 15:35:00
9:55 AM,24.3,11.3,58,30.06,10.0,ENE,15.0,24.2,N/A,,Overcast,70,2013-02-21 15:55:00
10:15 AM,25.2,11.1,55,30.04,10.0,East,18.4,23.0,N/A,,Overcast,90,2013-02-21 16:15:00
10:35 AM,25.3,13.3,60,30.03,5.0,East,13.8,23.0,N/A,Snow,Light Snow,90,2013-02-21 16:35:00
10:55 AM,23.7,16.5,74,30.01,1.5,ENE,17.3,23.0,N/A,Snow,Light Snow,70,2013-02-21 16:55:00
11:15 AM,23.4,19.4,85,30.02,0.8,East,16.1,-,N/A,Snow,Light Snow,80,2013-02-21 17:15:00
11:35 AM,23.5,20.1,87,29.99,1.0,ENE,13.8,23.0,N/A,Snow,Light Snow,60,2013-02-21 17:35:00
11:55 AM,23.4,20.1,87,29.97,0.8,ENE,16.1,21.9,N/A,Snow,Light Snow,60,2013-02-21 17:55:00
12:15 PM,23.0,20.3,89,29.96,0.5,ENE,15.0,24.2,N/A,Snow,Snow,60,2013-02-21 18:15:00
12:35 PM,23.4,20.7,89,29.95,0.5,ENE,13.8,20.7,N/A,Snow,Light Snow,70,2013-02-21 18:35:00
12:55 PM,23.0,20.5,90,29.95,0.5,ENE,13.8,19.6,N/A,Snow,Snow,60,2013-02-21 18:55:00
1:15 PM,23.0,20.3,89,29.94,0.5,ENE,16.1,23.0,0.01,Snow,Snow,60,2013-02-21 19:15:00
1:35 PM,23.0,20.1,89,29.93,0.8,ENE,17.3,25.3,0.01,Snow,Light Snow,60,2013-02-21 19:35:00
1:55 PM,22.6,19.6,88,29.93,0.8,ENE,15.0,-,0.01,Snow,Light Snow,60,2013-02-21 19:55:00
2:15 PM,22.6,19.8,89,29.91,0.8,NE,15.0,24.2,0.01,Snow,Light Snow,50,2013-02-21 20:15:00
2:35 PM,22.8,20.1,89,29.91,0.8,NE,12.7,20.7,0.01,Snow,Light Snow,50,2013-02-21 20:35:00
2:55 PM,23.0,20.3,89,29.91,0.5,NE,16.1,19.6,0.02,Snow,Light Snow,50,2013-02-21 20:55:00
3:15 PM,23.0,20.3,89,29.90,1.0,NE,13.8,17.3,N/A,Snow,Light Snow,50,2013-02-21 21:15:00
3:35 PM,22.8,20.3,90,29.90,0.5,ENE,18.4,-,N/A,Snow,Light Snow,60,2013-02-21 21:35:00
3:55 PM,22.8,20.3,90,29.89,0.2,NE,13.8,-,N/A,Snow,Snow,50,2013-02-21 21:55:00
4:15 PM,22.8,20.3,90,29.88,0.5,NE,15.0,-,N/A,Snow,Snow,50,2013-02-21 22:15:00
4:35 PM,22.6,20.1,90,29.87,0.8,NE,18.4,25.3,0.01,Snow,Light Snow,50,2013-02-21 22:35:00
4:55 PM,22.5,19.9,90,29.86,1.0,NE,15.0,-,0.01,Snow,Light Snow,50,2013-02-21 22:55:00
5:15 PM,22.1,19.9,91,29.86,1.0,NE,15.0,20.7,N/A,Snow,Light Snow,50,2013-02-21 23:15:00
5:35 PM,22.1,19.9,91,29.86,0.5,NE,18.4,23.0,N/A,Snow,Snow,50,2013-02-21 23:35:00
5:55 PM,22.1,20.1,92,29.87,0.8,NE,11.5,-,N/A,Snow,Light Snow,50,2013-02-21 23:55:00
6:15 PM,22.1,20.1,92,29.86,1.8,NE,13.8,-,N/A,Snow,Light Snow,50,2013-02-22 00:15:00
6:35 PM,22.1,19.9,91,29.86,3.0,NE,13.8,-,N/A,Snow,Light Snow,50,2013-02-22 00:35:00
6:55 PM,22.1,20.1,92,29.86,2.0,NE,10.4,17.3,N/A,Snow,Light Snow,50,2013-02-22 00:55:00
7:15 PM,22.5,20.3,91,29.86,3.0,NE,11.5,-,N/A,Snow,Light Snow,50,2013-02-22 01:15:00
7:35 PM,22.5,20.3,91,29.85,4.0,NE,11.5,-,N/A,Snow,Light Snow,40,2013-02-22 01:35:00
7:55 PM,22.5,20.3,91,29.85,0.8,NNE,8.1,-,N/A,Snow,Snow,30,2013-02-22 01:55:00
8:15 PM,22.5,20.7,93,29.85,0.8,NE,9.2,-,0.01,Snow,Snow,40,2013-02-22 02:15:00
8:35 PM,22.6,20.8,93,29.84,2.0,NE,9.2,-,0.01,Snow,Light Snow,50,2013-02-22 02:35:00
8:55 PM,22.8,20.8,92,29.84,2.0,NE,10.4,-,0.01,Snow,Light Snow,40,2013-02-22 02:55:00
9:15 PM,23.0,21.0,92,29.84,3.0,NE,9.2,-,N/A,Snow,Light Snow,40,2013-02-22 03:15:00
9:35 PM,23.0,21.0,92,29.83,5.0,NE,10.4,-,N/A,Snow,Light Snow,40,2013-02-22 03:35:00
9:55 PM,23.0,21.2,93,29.82,7.0,NNE,5.8,-,N/A,,Overcast,20,2013-02-22 03:55:00
10:15 PM,23.0,21.2,93,29.82,5.0,NNE,4.6,-,N/A,Snow,Light Snow,30,2013-02-22 04:15:00
10:35 PM,23.5,21.2,91,29.82,7.0,NNE,5.8,-,N/A,,Overcast,30,2013-02-22 04:35:00
10:55 PM,23.9,21.2,89,29.81,7.0,North,8.1,-,N/A,Snow,Light Snow,360,2013-02-22 04:55:00
11:15 PM,23.5,21.4,91,29.81,3.0,North,9.2,-,N/A,Snow,Light Snow,10,2013-02-22 05:15:00
11:35 PM,23.5,21.6,92,29.81,2.0,North,5.8,-,N/A,Snow,Light Snow,10,2013-02-22 05:35:00
11:55 PM,23.4,21.2,91,29.81,2.0,NNE,9.2,-,N/A,Snow,Light Snow,20,2013-02-22 05:55:00